Regional Weather Roundup
Issued by NWS

Home | Current Version | Previous Version | Text Only | Print | Product List | Glossary Off
Versions: 1 2 3 4 5 6 7 8 9 10 11 12 13 14 15 16 17 18 19 20 21 22 23 24 25 26 27

000
ASUS45 KCYS 190610
RWRWY

WYOMING REGIONAL WEATHER ROUNDUP
NATIONAL WEATHER SERVICE CHEYENNE WY
1100 PM MST THU JAN 18 2018

NOTE:  "FAIR" INDICATES FEW OR NO CLOUDS BELOW 12,000 FEET
WITH NO SIGNIFICANT WEATHER AND/OR OBSTRUCTIONS TO VISIBILITY.

WYZ001-190700-
YELLOWSTONE NATIONAL PARK

CITY           SKY/WX    TMP DP  RH WIND       PRES   REMARKS
LK YELLOWSTONE   N/A     32  29  88 CALM      29.82F
6HR MIN TEMP:  26; 6HR MAX TEMP:  34;

W YELLOWSTONE  NOT AVBL

$$
WYZ002>013-054>058-071-098>099-190700-
NORTHERN WYOMING

CITY           SKY/WX    TMP DP  RH WIND       PRES   REMARKS
JACKSON        MOCLDY    39  30  70 SW17      29.84F WCI  30
CODY           FAIR      41  28  60 SE10      29.68F
GREYBULL       CLOUDY    19  15  84 NW3       29.74F
6HR MIN TEMP:  17; 6HR MAX TEMP:  25;

WORLAND        FAIR      39  30  70 S14       29.73F WCI  31
6HR MIN TEMP:  20; 6HR MAX TEMP:  40;

SHERIDAN       FAIR      51  27  39 VRB6      29.63F
6HR MIN TEMP:  35; 6HR MAX TEMP:  55;

BUFFALO        FAIR      55  24  30 W13G22    29.70S
6HR MIN TEMP:  45; 6HR MAX TEMP:  56;

GILLETTE       FAIR      45  31  58 SW22      29.67F
6HR MIN TEMP:  44; 6HR MAX TEMP:  48;

HULETT         FAIR      45  30  57 S13G21    29.71F
NEWCASTLE      FAIR      43  25  49 N3        29.79F

$$
WYZ014>020-022>026-101>103-190700-
CENTRAL WYOMING

CITY           SKY/WX    TMP DP  RH WIND       PRES   REMARKS
BIG PINEY      FAIR      18  15  88 CALM      29.95F
6HR MIN TEMP:  15; 6HR MAX TEMP:  33;

PINEDALE       FAIR      14  12  92 NW3       29.95F
DUBOIS         FAIR      39  25  56 W20G26    29.84F WCI  30
LANDER         FAIR      30  20  66 VRB5      29.80F WCI  25
6HR MIN TEMP:  25; 6HR MAX TEMP:  32;

RIVERTON       FAIR      22  15  75 CALM      29.82F
6HR MIN TEMP:  22; 6HR MAX TEMP:  29;

CASPER         FAIR      45  19  35 SW29G38   29.83F
6HR MIN TEMP:  45; 6HR MAX TEMP:  47; 6HR PCP: TRACE;

DOUGLAS        FAIR      50  23  34 VRB3      29.83F
6HR MIN TEMP:  44; 6HR MAX TEMP:  53;


$$
WYZ021-027>030-104>119-190700-
SOUTHERN WYOMING

CITY           SKY/WX    TMP DP  RH WIND       PRES   REMARKS
EVANSTON       FAIR      36  23  59 S9        29.96F WCI  29
6HR MIN TEMP:  35; 6HR MAX TEMP:  44;

FORT BRIDGER   FAIR      42  23  48 W8        29.98F
ROCK SPRINGS   FAIR      32  18  56 S7        29.94F WCI  26
6HR MIN TEMP:  32; 6HR MAX TEMP:  43;

DIXON            N/A     28  19  69 CALM      30.06F
RAWLINS        FAIR      42  15  33 SW25G37   29.95F
6HR MIN TEMP:  40; 6HR MAX TEMP:  44; 6HR PCP: TRACE;

SARATOGA       FAIR      37  18  44 S17G25    30.00F WCI  28
LARAMIE        FAIR      39  14  36 S7        29.98F WCI  34
6HR MIN TEMP:  37; 6HR MAX TEMP:  43;

CHEYENNE       FAIR      50  16  25 SW16      29.92F
6HR MIN TEMP:  42; 6HR MAX TEMP:  51;

TORRINGTON     FAIR      46  27  47 CALM      29.83S
6HR MIN TEMP:  40; 6HR MAX TEMP:  52;


$$




USA.gov is the U.S. government's official web portal to all federal, state and local government web resources and services.